Date,TemperatureHighF,TemperatureAvgF,TemperatureLowF,DewpointHighF,DewpointAvgF,DewpointLowF,HumidityHigh,HumidityAvg,HumidityLow,PressureMaxIn,PressureMinIn,WindSpeedMaxMPH,WindSpeedAvgMPH,GustSpeedMaxMPH,PrecipitationSumIn
2013-7-1,76.5,70.9,66.9,73.0,69.1,66.0,97,94,86,30.00,29.89,4,0,0,0.10
2013-7-2,83.7,74.6,65.5,75.0,70.9,65.0,97,88,74,30.09,29.99,11,1,0,0.01
2013-7-3,85.6,78.2,72.9,75.0,72.6,71.0,92,83,69,30.16,30.08,9,2,0,0.00
2013-7-4,88.9,80.4,72.0,76.0,73.4,70.0,95,80,63,30.18,30.05,9,2,0,0.00
2013-7-5,89.7,81.0,72.9,79.0,73.8,71.0,94,79,63,30.13,29.99,8,1,0,0.05
2013-7-6,87.7,78.9,71.7,73.0,70.7,68.0,94,77,54,30.08,29.98,10,0,0,0.00
2013-7-7,89.9,76.5,70.4,78.0,71.5,67.0,96,85,65,30.02,29.88,5,0,0,0.38
2013-7-8,85.6,75.9,70.3,71.0,69.9,68.0,96,83,57,30.01,29.90,7,0,0,1.07
2013-7-9,87.5,76.0,69.2,74.0,70.4,68.0,97,84,57,30.05,29.94,6,0,0,0.17
2013-7-10,81.8,75.9,72.2,75.0,72.4,70.0,95,89,77,29.95,29.74,10,2,0,0.76
2013-7-11,83.0,75.1,70.2,74.0,66.3,61.0,96,76,47,29.95,29.73,6,1,0,0.00
2013-7-12,85.6,73.9,65.4,68.0,63.6,59.0,84,71,52,30.14,29.95,5,0,0,0.00
2013-7-13,78.8,72.7,66.1,72.0,67.2,62.0,91,83,72,30.26,30.15,4,0,0,0.00
2013-7-14,88.8,78.7,69.8,75.0,71.6,69.0,96,80,57,30.30,30.18,7,0,0,0.00
2013-7-15,92.3,82.0,74.5,73.0,70.8,66.0,88,70,51,30.22,30.11,4,0,0,0.00
2013-7-16,94.2,81.6,68.7,74.0,69.8,65.0,90,69,47,30.20,30.11,2,0,0,0.00
2013-7-17,94.5,82.8,71.4,76.0,71.8,68.0,95,72,45,30.18,29.99,6,1,0,0.00
2013-7-18,94.3,84.9,77.3,76.0,73.6,71.0,87,70,48,30.02,29.90,7,1,0,0.00
2013-7-19,95.1,84.8,74.5,77.0,72.3,66.0,91,68,47,29.91,29.68,15,2,0,0.00
2013-7-20,87.1,77.9,70.3,72.0,67.1,61.0,80,70,56,29.82,29.68,12,1,0,0.00
2013-7-21,86.2,74.2,63.2,69.0,62.9,59.0,90,69,46,29.96,29.82,5,0,0,0.00
2013-7-22,85.2,73.8,63.5,71.0,64.1,56.0,95,72,54,29.99,29.80,7,0,0,0.23
2013-7-23,83.9,74.4,69.5,73.0,70.0,68.0,97,87,65,29.79,29.54,8,0,0,1.38
2013-7-24,77.0,70.4,61.4,70.0,60.6,51.0,96,72,53,30.00,29.58,14,2,0,0.00
2013-7-25,74.8,64.4,53.0,58.0,53.2,49.0,87,68,50,30.09,30.01,7,0,0,0.00
2013-7-26,79.9,67.5,59.6,62.0,57.6,53.0,86,72,52,30.07,29.98,5,0,0,0.00
2013-7-27,83.1,69.8,56.1,65.0,60.7,54.0,95,75,51,30.03,29.91,9,1,0,0.00
2013-7-28,71.9,69.0,65.7,69.0,65.2,62.0,94,87,77,29.96,29.90,6,1,0,0.13
2013-7-29,81.4,71.5,63.3,66.0,61.6,55.0,94,73,46,30.09,29.93,4,0,0,0.00
2013-7-30,79.6,67.8,56.9,61.0,57.5,54.0,92,71,45,30.15,30.05,9,1,0,0.00
2013-7-31,81.3,69.1,57.1,62.0,58.7,55.0,93,71,48,30.15,30.00,6,0,0,0.00